RH
87 86 90 93 93 94 96 76 63 74 63 58 75 62 54 62 44 42 44 39 41 43 50 53 51 50 46 52 51 41 44 54 56 37 37 39 37 40 44 53 49 64 59 38
85 88 92 93 94 91 90 67 92 85 60 71 83 59 52 49 42 44 44 49 47 53 59 58 59 58 57 50 46 51 48 56 59 46 38 36 38 44 46 54 60 60 82 37
87 89 92 93 94 90 79 85 94 84 70 64 55 55 54 48 48 48 45 50 51 58 61 64 67 61 57 55 52 75 58 53 50 48 38 44 46 51 44 44 60 52 54 38
88 91 92 93 93 90 82 79 82 82 84 65 56 46 52 49 51 47 45 49 48 56 66 64 68 60 50 50 67 62 51 54 52 54 54 46 37 44 49 41 44 51 41 42
91 92 93 94 94 91 85 75 74 72 77 71 56 62 58 50 49 50 49 52 56 54 59 52 66 58 50 42 58 61 60 63 54 58 60 58 51 43 44 50 50 44 46 46
96 97 94 95 94 83 80 93 76 62 84 84 66 69 62 53 55 64 54 52 57 60 60 59 64 62 64 55 62 69 62 68 60 60 62 51 60 48 44 46 47 44 50 38
98 95 94 95 90 84 78 87 76 78 82 80 65 66 59 57 53 58 61 57 58 62 61 57 53 59 69 66 70 62 68 64 68 73 71 59 37 45 41 44 42 41 41 42
95 93 95 95 89 88 84 94 74 78 98 70 68 71 74 73 76 76 72 75 65 61 56 72 67 75 76 75 69 63 59 70 81 79 59 42 27 36 50 55 37 42 41 48
93 94 95 95 90 88 91 95 86 77 85 75 57 74 70 76 81 79 85 71 64 62 79 79 79 74 60 53 72 71 64 66 72 78 65 61 41 32 47 43 60 41 51 65
96 95 95 95 90 88 88 96 86 80 88 79 70 73 72 73 77 85 79 70 74 64 84 90 79 66 56 54 68 93 98 95 83 81 79 58 41 41 46 55 53 54 63 64
98 97 95 92 88 88 86 95 94 73 92 89 83 71 75 76 76 83 80 76 80 85 88 90 80 91 75 68 58 81 74 91 91 85 78 69 45 51 61 56 55 54 65 66
98 99 96 89 84 86 88 87 97 88 85 85 85 80 80 78 62 79 85 69 76 76 86 90 94 100 98 82 75 72 70 68 72 63 65 51 48 58 52 56 53 54 66 62
99 99 98 86 82 88 82 93 96 83 94 83 81 82 76 75 79 70 77 84 74 73 74 88 93 93 88 94 86 76 68 61 72 67 52 55 53 49 52 49 55 55 61 61
99 99 99 98 91 92 80 87 98 79 89 100 87 76 81 77 80 74 72 78 84 84 81 97 99 97 79 90 75 80 67 67 69 72 62 57 52 57 54 54 59 62 62 66
99 94 95 93 92 90 90 96 98 94 67 96 96 82 78 81 81 79 75 73 79 87 93 100 95 89 91 95 92 87 69 65 77 71 50 52 50 44 54 63 63 65 70 76
99 99 95 90 90 87 86 73 90 94 90 91 99 89 88 86 85 87 91 88 88 84 85 96 87 84 84 100 89 63 60 59 54 52 55 54 56 54 58 64 68 74 72 59
96 93 92 93 93 93 74 69 88 92 90 94 98 98 85 90 90 96 95 94 94 89 98 99 97 97 84 99 91 80 79 73 70 65 69 71 68 71 76 65 53 56 57 63
95 95 94 94 94 95 95 98 95 93 80 87 95 97 97 89 99 99 96 99 97 98 97 98 99 97 98 99 88 80 74 74 74 76 77 76 66 55 51 52 64 80 88 89
90 91 93 90 96 99 97 94 93 92 82 95 94 91 93 90 99 99 99 96 100 94 100 100 94 100 100 95 91 92 91 91 86 77 60 62 69 70 74 84 91 95 97 97
88 88 88 100 100 91 86 86 91 95 100 98 100 92 100 92 100 100 100 100 100 100 98 98 100 100 87 95 95 94 89 85 78 82 89 91 95 95 96 96 96 96 97 95
95 99 100 98 89 88 94 99 99 96 98 99 99 98 98 95 99 100 100 100 100 97 92 100 100 98 87 90 94 89 87 87 90 92 95 96 96 96 97 98 95 92 88 85
93 96 92 90 91 93 95 100 100 99 98 100 100 100 98 100 95 98 100 100 100 97 95 100 98 96 98 97 96 86 78 79 81 81 85 86 82 79 82 84 84 82 85 94
89 90 91 89 98 98 88 99 100 100 100 100 100 100 100 98 98 100 100 100 99 98 100 99 99 99 99 99 98 93 76 78 76 73 76 78 79 81 84 86 84 92 88 84
96 96 99 96 100 99 99 100 100 100 100 100 100 100 100 100 100 100 100 100 99 100 98 97 100 100 100 99 99 88 86 90 83 74 72 78 87 86 88 92 92 93 88 86
98 96 99 98 100 99 100 100 100 100 100 100 100 100 98 100 99 98 96 96 96 93 93 95 98 99 100 98 89 75 75 88 81 74 80 92 90 86 80 84 85 84 92 92
99 99 99 100 99 100 100 100 100 99 100 100 100 99 98 98 98 97 95 95 94 93 98 99 98 99 100 98 84 78 83 81 80 80 77 80 89 91 84 86 90 93 94 94
93 99 100 100 100 100 100 100 100 99 100 100 98 97 96 97 96 96 95 96 94 98 99 99 99 98 98 98 96 92 81 78 80 83 87 88 88 93 91 92 84 86 86 96
Wind_Speed
24 21 19 17 15 16 10 4 3 1 2 5 1 5 6 3 3 3 2 5 4 5 3 4 3 6 1 1 1 4 1 4 3 1 1 1 1 3 4 3 4 1 0 6
24 23 19 18 21 22 7 5 3 0 4 5 1 2 3 3 0 1 3 3 3 3 5 4 3 4 1 1 3 5 5 1 3 3 2 1 3 3 4 5 3 6 4 4
22 21 21 21 24 23 5 4 4 3 4 1 8 5 4 3 2 1 4 5 4 4 3 4 5 3 1 1 2 5 5 3 4 7 3 1 4 4 5 4 3 5 7 5
22 20 20 20 23 23 3 2 3 3 5 1 5 4 6 5 3 1 2 4 3 5 5 3 3 2 2 3 3 3 3 4 2 1 1 2 2 4 9 9 4 7 3 9
20 19 18 18 18 18 2 5 5 3 2 6 7 3 7 7 3 1 1 7 3 2 6 6 9 7 4 4 2 2 2 4 2 4 0 2 3 6 8 8 4 11 5 15
20 18 16 17 22 13 3 2 1 6 4 4 6 6 7 8 7 2 4 7 5 4 1 2 3 6 8 5 5 3 2 5 3 4 3 3 5 11 12 6 6 9 11 10
18 16 18 20 25 11 3 3 4 6 2 3 6 8 4 7 6 8 3 4 5 1 9 8 7 12 13 12 9 3 5 4 2 1 2 2 4 2 3 12 8 14 6 4
15 16 18 21 25 18 2 2 5 5 3 3 3 6 5 7 5 5 4 3 1 8 3 5 5 5 6 5 7 6 3 5 4 3 3 6 5 4 7 7 7 11 15 6
13 15 18 19 19 18 3 1 2 5 9 6 6 6 5 6 4 3 3 4 4 5 4 4 4 4 4 1 1 3 5 6 4 3 3 5 6 1 3 3 5 1 7 7
12 14 16 18 20 17 3 2 2 5 5 0 6 5 7 5 5 5 5 5 2 2 3 3 3 3 1 4 5 3 2 3 3 3 4 8 6 1 1 2 6 1 5 7
11 14 17 20 21 17 3 2 2 4 3 1 0 4 6 4 2 7 6 5 2 3 4 4 4 3 4 2 3 5 6 6 3 3 1 7 5 3 5 5 2 3 5 8
10 11 16 20 22 15 4 4 0 0 5 3 0 3 2 0 5 8 1 3 5 5 6 1 4 3 1 2 3 1 3 5 4 9 6 3 6 5 2 2 3 3 4 6
9 12 15 20 19 12 8 4 3 4 4 3 4 4 5 5 3 1 7 2 5 3 2 5 3 3 4 5 5 2 4 4 4 1 3 8 10 8 8 7 11 6 7 7
11 14 15 15 15 7 9 4 2 3 4 7 2 3 4 7 4 4 3 8 7 7 2 4 4 4 4 3 2 3 3 6 4 5 9 5 8 9 11 10 7 9 6 6
12 16 17 16 17 19 13 4 3 1 4 5 1 2 6 9 5 10 10 10 7 3 3 3 3 3 5 2 1 3 6 7 5 7 8 4 6 4 3 5 5 6 6 2
12 12 13 14 15 9 4 4 2 6 2 7 3 2 5 6 7 12 10 4 4 3 3 2 2 2 3 4 3 7 1 4 3 6 4 4 7 8 4 6 5 3 3 6
13 11 14 11 12 6 5 5 2 7 1 6 4 3 4 4 4 4 4 5 3 3 3 3 3 2 3 3 4 8 10 11 12 5 5 4 3 5 8 9 12 17 17 16
13 16 20 22 24 16 6 4 7 4 6 5 5 2 3 6 3 3 4 2 2 5 3 2 2 2 1 3 6 12 13 15 3 13 7 2 6 10 12 12 14 18 15 14
7 6 7 5 8 4 2 11 7 4 6 5 3 5 4 3 2 1 3 2 4 2 2 1 2 1 1 4 8 10 12 8 13 9 12 15 16 15 15 16 15 15 12 10
5 7 6 5 2 8 6 7 7 8 5 5 4 1 2 1 1 2 2 2 2 2 1 1 2 3 5 5 5 6 8 11 7 5 8 12 12 14 14 14 12 9 7 4
5 5 3 3 6 3 5 5 5 3 4 3 1 1 3 3 3 2 0 2 1 3 1 2 1 3 2 4 6 7 9 12 15 16 15 14 12 12 10 7 6 8 7 4
2 5 4 3 6 5 8 3 2 4 2 1 2 1 2 1 1 3 0 3 1 2 1 1 2 2 4 6 8 9 10 12 14 13 12 10 9 7 6 2 1 2 3 3
3 6 6 4 4 6 5 5 2 2 1 1 1 2 1 2 3 3 2 3 2 2 2 2 2 7 6 6 6 8 7 6 5 6 6 6 4 5 4 4 3 3 3 3
6 4 5 4 3 3 2 2 2 2 1 2 2 3 2 1 3 1 3 1 1 3 4 3 3 5 7 5 4 5 3 1 3 4 4 4 4 4 4 4 4 3 4 4
5 5 4 4 2 3 2 1 2 2 1 1 2 2 2 2 3 2 3 2 2 2 3 3 4 6 6 7 3 3 2 1 1 2 3 3 3 3 4 4 4 4 5 4
4 5 3 2 3 2 2 3 2 1 1 1 2 2 2 1 2 2 3 4 3 2 1 3 5 6 6 5 2 3 1 2 3 4 4 5 6 6 5 5 8 8 7 8
4 3 3 2 4 3 2 2 2 2 2 2 2 2 2 1 2 1 0 2 2 5 4 3 5 7 7 4 0 3 4 5 5 7 8 8 6 5 8 11 12 12 9 5
Wind_Direction
176 178 174 167 165 149 148 141 170 246 129 80 49 157 197 200 259 150 195 111 107 142 134 124 143 177 215 181 224 155 156 125 135 178 313 303 138 140 139 130 181 74 113 274
176 174 170 158 158 166 140 150 156 344 108 135 213 260 217 191 320 191 134 103 106 71 132 112 141 151 123 153 138 164 187 60 94 14 358 342 210 141 107 102 99 189 160 258
174 177 162 166 176 188 104 128 118 356 59 82 139 154 174 154 183 132 88 118 90 105 91 26 152 133 52 85 106 72 88 113 163 188 185 155 180 174 169 140 150 167 234 266
171 172 163 176 180 186 101 80 191 180 173 215 145 134 162 147 176 120 62 69 128 154 118 92 125 142 127 43 158 63 108 151 132 128 60 231 229 183 186 206 174 191 232 222
167 169 166 173 168 149 126 140 135 33 82 131 122 163 194 150 152 147 117 120 130 119 150 179 190 145 189 186 82 86 19 165 139 197 347 12 265 238 212 227 224 252 250 269
179 172 164 166 160 156 143 187 60 104 316 109 116 193 181 181 137 53 56 141 114 101 145 87 62 81 80 107 137 126 97 137 118 248 6 2 317 226 205 192 206 212 222 241
184 168 165 165 172 181 137 177 111 95 170 143 184 172 158 156 176 137 66 76 103 172 127 115 66 58 68 64 46 52 123 96 60 149 9 269 245 186 188 223 238 217 251 198
176 165 168 170 178 186 105 158 117 121 130 178 131 154 119 96 63 77 88 19 355 142 61 73 58 356 25 31 38 27 47 120 98 155 206 304 279 188 186 183 275 215 225 202
163 169 172 176 175 173 102 90 113 106 121 237 147 141 178 140 117 65 73 37 78 68 77 80 131 190 208 204 94 48 56 60 111 141 185 233 246 288 183 154 280 275 210 157
159 165 168 168 166 166 136 113 116 95 110 239 139 163 163 130 106 101 122 152 198 38 80 90 147 204 210 187 173 192 45 16 172 148 237 284 260 302 183 113 255 239 187 170
150 165 166 162 161 168 119 93 24 111 100 320 17 156 136 115 122 136 173 86 317 53 82 130 184 162 207 149 164 181 175 157 185 109 199 273 185 109 178 225 269 252 206 198
119 134 153 152 159 170 139 96 201 59 80 137 75 86 64 324 175 126 202 143 156 166 94 141 116 143 134 119 226 1 234 198 180 197 219 238 222 237 243 185 260 264 238 253
100 112 132 146 151 152 155 92 147 60 97 32 53 16 344 28 4 170 120 287 154 135 76 142 129 144 140 160 230 184 233 174 221 108 248 235 240 265 258 246 246 241 232 238
83 114 122 130 132 131 120 73 104 81 102 109 289 332 29 327 347 56 60 122 81 97 73 106 134 139 199 188 168 184 198 141 181 261 278 270 259 231 256 271 257 255 247 231
80 88 98 108 109 94 84 89 58 265 129 144 202 315 6 355 43 73 79 102 105 114 87 96 173 118 124 67 62 257 184 188 178 233 243 213 257 303 291 257 271 270 243 178
83 87 94 105 117 110 94 68 34 20 11 101 104 289 7 349 31 56 52 48 73 81 120 139 98 45 106 133 199 262 336 301 316 294 24 250 266 279 267 281 333 7 93 96
83 83 85 99 131 103 86 148 298 343 331 87 78 10 343 340 24 42 25 25 64 72 94 71 119 105 94 123 195 349 354 338 316 316 303 295 22 344 20 78 86 89 90 93
75 87 91 93 94 114 49 7 358 335 90 66 108 295 28 359 38 57 351 46 40 31 102 91 103 95 109 216 355 343 343 329 309 10 348 295 68 67 77 89 96 84 73 71
82 117 146 66 36 49 290 328 323 41 87 109 81 131 203 1 51 50 36 29 71 314 106 95 129 111 101 360 335 344 342 325 292 0 57 67 73 76 80 79 73 78 78 80
19 41 44 38 338 317 318 3 26 19 356 37 82 149 106 21 19 46 76 9 108 129 159 106 100 85 116 22 11 356 3 8 356 144 65 77 78 73 71 70 74 74 83 121
39 43 57 242 317 56 35 56 56 334 40 22 77 106 123 350 114 135 20 129 72 171 161 177 127 103 59 28 57 52 60 66 68 79 78 75 78 85 89 101 154 178 194 219
94 117 92 43 35 52 70 32 1 40 149 5 102 57 64 63 55 109 254 117 103 183 105 120 145 90 76 82 74 73 77 82 84 89 103 120 136 149 164 160 149 292 324 337
39 50 56 46 341 65 113 173 187 151 179 7 65 67 62 35 44 69 100 135 180 105 153 155 88 123 115 104 94 88 76 56 73 64 44 43 36 28 18 346 335 307 294 287
60 50 60 58 68 58 59 69 90 79 87 79 63 71 77 334 61 38 121 77 135 185 191 155 128 138 138 134 142 159 158 53 42 13 350 354 353 348 349 341 332 326 327 323
53 24 59 55 94 53 46 35 81 25 96 51 82 67 60 33 90 35 99 57 226 242 174 150 141 146 140 139 153 156 163 91 40 12 30 1 12 12 12 15 348 346 331 324
63 48 76 31 80 59 45 38 65 16 45 9 37 81 80 72 110 137 200 155 220 174 131 106 132 136 135 154 188 185 102 66 60 56 38 36 28 22 12 11 25 5 357 348
51 36 18 23 62 66 57 47 35 349 54 74 86 93 139 95 87 138 128 186 180 146 126 134 151 163 174 187 246 6 59 62 57 64 55 49 42 34 31 16 2 351 350 330